Lid_Strength_Index
15 14 14 14 14 13 14 13 15 13 13 11 13 13 12 12 12 12 12 11 10 10 9 8 7 7 7 7 7 8 8 8 8 8 8 9 10 11 11 11 11 11 11 11
16 15 14 15 13 12 13 12 13 12 13 12 12 12 12 12 12 12 11 11 10 9 9 9 8 8 8 8 9 9 10 9 8 9 10 11 11 12 13 12 12 12 12 12
17 15 14 16 15 13 12 11 12 14 11 10 12 12 12 11 11 11 11 10 10 10 9 9 9 9 9 9 10 10 10 10 10 11 12 12 13 13 13 12 12 12 12 11
16 16 20 15 14 13 13 12 11 10 10 9 9 9 9 10 10 11 10 10 10 10 9 9 9 9 9 10 11 11 11 11 12 12 13 14 14 13 13 13 13 12 12 12
17 17 14 14 14 15 14 14 13 12 11 11 10 10 11 9 10 10 10 10 9 8 8 8 9 9 10 11 12 12 12 12 13 13 14 14 14 13 13 13 13 12 12 12
15 18 19 15 14 12 12 17 14 15 14 13 12 15 12 11 11 10 10 9 9 9 9 9 9 10 12 13 13 12 12 12 13 13 13 13 13 13 13 13 13 13 13 12
15 17 14 12 12 12 17 16 14 15 14 14 13 11 11 11 11 11 11 11 11 10 10 10 11 12 12 13 13 12 13 14 13 13 13 13 13 13 13 13 13 13 13 13
15 16 18 11 12 14 12 12 13 14 13 14 13 12 12 12 12 12 12 13 13 12 12 12 13 12 13 12 12 13 13 14 14 14 14 14 13 14 13 13 13 13 13 12
13 13 10 10 10 9 10 11 12 13 12 12 13 12 12 13 13 13 14 14 14 14 15 15 15 14 13 14 14 14 14 14 14 14 14 14 13 13 13 13 12 12 12 12
12 10 10 9 9 9 10 10 10 11 11 12 12 12 12 13 13 14 15 16 16 15 16 16 15 15 14 14 14 14 14 14 14 14 14 14 13 13 12 12 13 12 12 13
11 10 9 9 8 7 8 9 10 10 12 12 11 11 12 13 15 15 16 16 16 16 16 17 16 16 15 14 14 14 14 14 14 14 14 14 13 13 13 12 11 12 12 12
11 8 8 7 7 8 8 8 8 10 11 12 13 12 14 15 16 16 16 16 17 17 17 18 18 18 17 15 14 13 14 14 14 14 14 14 13 14 14 13 13 13 12 12
8 7 7 6 8 7 7 8 9 11 11 12 13 14 14 15 16 17 16 17 18 18 18 18 19 20 19 17 14 14 14 15 15 15 14 14 14 13 13 15 14 13 12 12
6 7 8 8 7 7 8 9 12 13 14 14 14 15 15 16 17 17 19 19 19 19 20 20 21 22 22 18 17 17 16 16 14 14 14 14 14 14 14 14 14 14 14 14
8 8 8 8 9 8 11 12 12 12 13 13 14 14 15 16 16 19 20 20 20 20 20 20 21 23 22 20 17 16 16 16 16 16 17 17 16 16 16 15 15 15 15 14
9 9 9 10 8 7 10 13 12 11 12 12 13 16 16 16 18 20 20 19 17 19 21 21 23 24 23 20 18 18 20 20 18 17 17 17 16 16 16 16 16 16 16 16
13 12 14 12 10 8 11 10 9 10 13 13 13 15 17 18 18 19 20 20 21 22 22 23 24 24 23 22 18 18 18 20 20 18 18 18 17 18 18 18 18 17 16 16
13 11 10 9 9 9 10 10 11 11 13 13 15 16 16 16 17 20 21 21 21 22 23 23 23 22 23 22 21 19 18 18 18 19 19 18 19 18 17 17 17 17 16 15
19 18 14 12 10 10 10 10 11 12 15 15 15 15 15 15 17 20 20 19 19 19 23 23 21 22 22 21 21 19 19 19 19 20 20 22 19 19 18 18 18 18 19 18
20 18 17 14 16 14 14 16 14 15 16 16 16 17 17 18 18 18 17 20 21 22 23 24 24 23 23 23 23 20 20 19 20 20 20 20 20 20 20 22 21 20 19 19
21 20 20 19 19 17 16 16 16 16 16 16 16 18 18 19 18 18 18 18 22 24 24 24 23 23 23 23 22 21 20 21 21 21 21 22 21 21 21 21 21 20 20 20
21 21 21 19 19 18 17 16 16 16 15 17 18 18 19 20 21 22 23 19 22 23 23 23 23 25 24 24 22 22 22 22 23 22 23 23 22 22 23 22 22 21 21 21
21 21 20 20 19 18 18 17 16 15 16 16 18 18 18 18 18 18 19 23 22 23 22 23 24 24 25 23 23 23 23 24 24 24 24 24 24 24 23 23 23 22 23 23
22 22 21 20 18 18 20 21 21 21 21 21 21 21 20 21 22 22 23 23 23 23 23 23 23 24 25 24 24 24 24 25 25 25 25 26 24 24 23 24 24 23 24 25
22 21 21 20 20 21 21 22 22 22 23 23 24 23 23 22 20 23 23 24 23 24 24 24 24 25 25 24 25 25 25 26 26 25 25 25 25 25 24 25 26 25 26 26
19 21 21 23 21 20 20 19 21 21 22 23 23 23 23 24 24 24 24 24 24 24 25 25 25 25 25 25 26 26 25 26 25 26 25 25 25 25 26 26 26 25 26 26
24 24 23 23 23 22 21 21 21 22 21 21 24 25 24 24 25 25 25 25 25 25 26 25 25 26 25 25 25 25 25 26 27 25 26 26 26 27 27 26 26 26 25 26